Location: *
(45.0500°N, 12.0500°E)
Time: 00:18:27
(UTC+00:00)

Cosmos 1603 - Pass Details

Date: 09 April 2020
Orbit: 831 x 859 km, 71.0° (Epoch: 30 May)

Event Time Altitude Azimuth Distance (km) Brightness Sun altitude
Rises 18:14:53 0° 214° (SW) 3,375 7.1 -5.1°
Reaches altitude 10° 18:17:21 10° 218° (SW) 2,441 6.4 -5.5°
Maximum altitude 18:22:53 62° 299° (WNW) 936 4.3 -6.4°
Drops below altitude 10° 18:28:26 10° 20° (NNE) 2,448 6.1 -7.3°
Sets 18:30:55 0° 24° (NNE) 3,386 6.8 -7.7°
